This is the latest recevied weather packets stored in our database for station/object YM2KV-13. If no packets are shown the sender has not sent any weather packets the latest 10 day(s).
| Time | Temp. | Humidity | Pressure | Rain* | Wind** | Luminosity | Snow |
|---|---|---|---|---|---|---|---|
| 1778179792 | 11.67° C | 74% | 1029.2 hPa | - | - | - | - |
| 1778179192 | 11.67° C | 75% | 1029.2 hPa | - | - | - | - |
| 1778178592 | 11.67° C | 74% | 1029.2 hPa | - | - | - | - |
| 1778177992 | 12.22° C | 73% | 1029.1 hPa | - | - | - | - |
| 1778177392 | 12.22° C | 72% | 1029 hPa | - | - | - | - |
| 1778176792 | 12.78° C | 72% | 1028.9 hPa | - | - | - | - |
| 1778176192 | 12.78° C | 71% | 1028.8 hPa | - | - | - | - |
| 1778175592 | 13.33° C | 70% | 1028.8 hPa | - | - | - | - |
| 1778174992 | 13.89° C | 69% | 1028.7 hPa | - | - | - | - |
| 1778174392 | 13.89° C | 69% | 1028.7 hPa | - | - | - | - |
| 1778173792 | 14.44° C | 68% | 1028.7 hPa | - | - | - | - |
| 1778173192 | 14.44° C | 67% | 1028.7 hPa | - | - | - | - |
| 1778172592 | 15.56° C | 65% | 1028.7 hPa | - | - | - | - |
| 1778171992 | 16.11° C | 63% | 1028.7 hPa | - | - | - | - |
| 1778171392 | 17.22° C | 60% | 1028.6 hPa | - | - | - | - |
| 1778170792 | 18.33° C | 56% | 1028.6 hPa | - | - | - | - |
| 1778170192 | 19.44° C | 55% | 1028.5 hPa | - | - | - | - |
| 1778169592 | 20.56° C | 50% | 1028.6 hPa | - | - | - | - |
| 1778168992 | 21.11° C | 43% | 1028.6 hPa | - | - | - | - |
| 1778168392 | 21.11° C | 40% | 1028.5 hPa | - | - | - | - |
| 1778167791 | 21.67° C | 40% | 1028.5 hPa | - | - | - | - |
| 1778167191 | 21.67° C | 39% | 1028.5 hPa | - | - | - | - |
| 1778166591 | 21.11° C | 36% | 1028.6 hPa | - | - | - | - |
| 1778165992 | 22.22° C | 37% | 1028.7 hPa | - | - | - | - |
| 1778165392 | 22.22° C | 37% | 1028.7 hPa | - | - | - | - |
* Rain since midnight (hover to see other rain measurements)
** Current wind speed in m/s (hover to see current wind gust speed)